Temp
8 8 8 8 10 10 10 11 12 15 16 16 16 15 16 15 16 17 15 16 16 16 16 16 16 15 15 15 15 15 15 15
5 7 8 9 10 8 7 7 10 11 14 13 15 15 16 16 16 16 16 15 16 16 16 16 16 15 16 16 15 15 15 16
1 2 3 4 4 5 5 4 5 8 9 11 11 13 14 16 15 15 15 16 15 16 16 16 16 15 15 16 15 15 15 15
0 1 2 3 1 0 2 2 2 5 7 9 12 13 13 15 15 14 15 15 15 16 16 16 16 15 15 16 16 15 15 14
-1 -0 -0 -1 -1 0 0 1 1 2 4 7 8 9 11 13 15 15 15 15 15 15 16 16 16 16 15 15 16 16 15 15
-1 -2 -3 -2 -1 -1 -1 -0 1 1 1 3 6 8 11 12 13 14 15 15 14 14 15 16 16 16 15 15 15 15 15 15
-2 -3 -3 -2 -1 -2 -2 -2 -1 -0 1 2 3 4 9 11 12 12 14 14 14 14 14 16 16 16 15 16 16 16 16 15
-3 -3 -3 -3 -2 -3 -3 -3 -1 -1 0 1 3 3 6 8 10 12 12 12 14 13 13 15 15 15 15 16 16 16 16 15
-2 -3 -3 -3 -3 -4 -4 -3 -3 -1 -0 1 2 2 4 6 8 11 12 12 12 11 12 14 15 14 15 14 15 16 16 15
-3 -4 -4 -3 -4 -4 -4 -4 -4 -2 -1 -1 0 1 3 5 7 10 11 11 12 11 11 12 15 14 13 14 13 15 16 16
-3 -4 -4 -4 -5 -5 -4 -4 -4 -4 -2 -2 -1 -0 0 2 6 8 9 10 12 11 10 11 14 14 13 14 13 14 14 14
-4 -5 -4 -4 -5 -5 -5 -4 -4 -4 -3 -3 -2 -1 -1 0 6 4 6 8 11 10 10 12 14 14 12 13 14 13 13 14
-5 -5 -5 -4 -5 -5 -5 -5 -4 -4 -4 -3 -3 -3 -3 -1 4 3 4 8 8 9 11 8 13 13 13 13 13 13 12 13
-4 -5 -5 -6 -5 -5 -6 -6 -4 -4 -4 -4 -4 -4 -3 -1 1 1 3 4 5 7 8 0 10 12 11 12 12 11 12 12
-4 -5 -6 -6 -6 -6 -6 -6 -5 -5 -4 -5 -5 -4 -4 -3 -2 1 1 2 3 4 5 2 1 7 11 11 11 11 12 11
-4 -5 -6 -7 -7 -7 -6 -5 -5 -5 -5 -5 -5 -5 -4 -4 -2 -1 1 1 -0 2 2 4 3 2 5 6 6 10 10 10
-5 -6 -6 -8 -8 -7 -8 -7 -6 -6 -6 -6 -5 -5 -4 -4 -3 -0 1 1 1 -0 0 0 3 1 3 3 3 6 7 7
-6 -6 -6 -8 -8 -8 -8 -8 -7 -7 -7 -6 -6 -5 -5 -5 -4 -2 -0 1 1 -1 -2 -2 -0 2 3 4 5 4 3 5
-6 -7 -7 -8 -9 -8 -8 -8 -8 -8 -7 -7 -7 -7 -6 -5 -4 -2 -1 -1 -2 -4 -3 -3 -3 1 2 4 2 2 2 3
Height
1506 1501 1497 1495 1491 1488 1485 1480 1477 1474 1471 1471 1470 1469 1470 1472 1473 1473 1475 1475 1480 1483 1488 1492 1496 1500 1502 1508 1512 1517 1521 1525
1509 1502 1497 1491 1488 1482 1477 1471 1470 1468 1464 1462 1462 1462 1462 1464 1466 1469 1467 1467 1469 1473 1478 1483 1488 1491 1496 1501 1506 1510 1514 1518
1511 1504 1498 1492 1486 1479 1474 1468 1465 1463 1460 1455 1455 1454 1455 1456 1457 1460 1461 1462 1461 1464 1464 1471 1478 1484 1489 1493 1497 1502 1507 1510
1508 1501 1494 1489 1484 1477 1470 1464 1459 1457 1453 1447 1444 1444 1445 1447 1447 1449 1451 1453 1454 1453 1458 1461 1468 1474 1478 1483 1487 1492 1496 1502
1510 1502 1495 1491 1482 1475 1468 1461 1455 1451 1448 1442 1440 1436 1435 1437 1437 1439 1441 1442 1441 1436 1448 1451 1456 1463 1470 1473 1480 1484 1488 1493
1508 1505 1499 1490 1480 1471 1464 1458 1453 1446 1443 1439 1434 1429 1426 1425 1428 1429 1431 1431 1433 1437 1433 1439 1443 1449 1456 1464 1471 1475 1479 1483
1510 1506 1497 1488 1480 1471 1463 1455 1448 1443 1439 1433 1429 1424 1419 1416 1419 1419 1420 1421 1423 1425 1421 1423 1426 1435 1443 1452 1461 1466 1469 1474
1510 1504 1495 1486 1475 1469 1462 1454 1446 1440 1433 1426 1422 1418 1413 1409 1410 1410 1411 1410 1410 1411 1395 1408 1422 1423 1435 1444 1448 1454 1459 1464
1510 1506 1496 1488 1482 1474 1465 1453 1443 1436 1428 1420 1416 1414 1405 1403 1401 1402 1402 1402 1404 1403 1384 1380 1412 1417 1425 1434 1440 1445 1451 1456
1511 1506 1500 1490 1485 1477 1467 1456 1444 1435 1429 1422 1416 1412 1401 1399 1394 1393 1393 1390 1390 1396 1382 1372 1399 1410 1414 1424 1430 1436 1444 1448
1511 1507 1500 1492 1488 1478 1468 1458 1447 1439 1431 1424 1416 1407 1398 1394 1386 1384 1384 1384 1382 1379 1377 1379 1390 1398 1411 1417 1423 1429 1439 1442
1512 1507 1499 1493 1488 1478 1469 1459 1450 1440 1431 1424 1415 1407 1400 1392 1379 1381 1381 1378 1377 1381 1374 1347 1365 1384 1404 1406 1413 1423 1430 1436
1512 1506 1499 1492 1486 1477 1468 1461 1452 1443 1433 1425 1417 1410 1403 1390 1378 1381 1378 1367 1370 1381 1370 1367 1336 1377 1389 1394 1406 1417 1425 1428
1512 1505 1500 1493 1486 1477 1470 1462 1453 1445 1437 1430 1425 1417 1406 1391 1383 1380 1376 1367 1372 1375 1373 1390 1353 1369 1387 1389 1395 1408 1403 1413
1513 1508 1502 1495 1488 1481 1474 1466 1457 1450 1443 1437 1430 1417 1407 1399 1394 1380 1378 1376 1383 1382 1384 1386 1364 1371 1380 1384 1391 1398 1403 1414
1513 1509 1503 1498 1491 1485 1478 1470 1462 1455 1447 1438 1429 1424 1411 1405 1395 1387 1382 1382 1383 1385 1388 1391 1371 1379 1372 1382 1390 1398 1406 1410
1514 1511 1506 1499 1494 1487 1482 1474 1466 1460 1454 1445 1436 1432 1422 1411 1402 1391 1388 1392 1388 1391 1398 1401 1384 1385 1376 1392 1395 1395 1396 1408
1515 1511 1508 1502 1496 1491 1484 1478 1471 1465 1460 1453 1444 1437 1429 1423 1413 1401 1392 1387 1390 1399 1401 1403 1390 1381 1382 1384 1384 1397 1404 1400
1516 1513 1509 1504 1498 1493 1487 1481 1475 1467 1463 1457 1451 1443 1436 1428 1418 1400 1391 1401 1405 1406 1405 1399 1398 1379 1385 1388 1394 1400 1402 1391
Wind_Speed
38 39 40 39 35 35 32 33 31 31 34 31 28 27 32 40 42 44 41 41 38 42 44 42 37 39 37 31 32 30 30 27
36 38 39 41 37 36 35 34 32 32 36 34 32 31 33 36 44 44 47 44 45 44 46 45 41 42 41 36 37 34 32 27
37 40 42 42 42 41 38 38 34 31 33 37 33 29 36 36 37 45 45 49 48 50 49 50 44 42 42 41 39 39 35 30
40 44 45 44 43 42 41 39 38 33 30 34 39 36 35 41 38 41 50 52 51 53 52 49 49 45 47 46 44 42 42 35
37 43 45 44 44 41 39 39 37 36 31 32 31 31 34 39 43 44 47 55 55 52 55 52 54 50 50 48 44 41 40 42
39 40 40 41 43 43 38 37 36 34 34 31 32 33 30 36 39 39 43 52 56 61 58 57 58 58 55 50 47 44 42 44
36 36 39 40 40 41 38 36 32 31 31 28 28 32 31 33 32 34 47 47 55 60 68 64 61 65 60 54 49 48 45 46
36 39 40 41 43 40 38 38 33 30 27 25 26 29 30 32 31 35 38 43 49 60 66 70 64 69 61 55 53 54 50 46
35 36 38 38 37 37 37 39 34 30 28 23 19 23 28 30 33 35 43 44 42 42 59 66 66 66 61 56 56 54 52 46
33 34 35 37 35 36 37 38 33 27 25 23 19 16 17 23 26 28 39 40 42 39 49 69 58 63 59 54 55 53 50 45
31 32 35 35 35 36 36 36 37 31 22 24 21 18 19 10 16 19 30 30 41 40 31 65 61 52 58 56 54 49 48 45
28 32 34 34 34 36 38 37 38 35 29 28 25 21 20 16 11 4 11 22 21 26 33 41 63 54 50 51 48 50 48 46
25 31 36 36 35 37 39 39 35 34 36 33 34 28 25 22 14 11 5 5 7 17 23 29 43 45 46 48 42 40 38 37
25 32 36 37 36 37 38 40 36 34 35 34 35 33 31 29 23 23 17 18 18 6 12 23 40 36 39 38 39 27 17 17
24 29 35 36 35 35 36 37 35 33 33 33 35 33 34 33 28 30 28 29 24 13 5 23 24 25 28 24 25 33 29 29
24 28 33 33 33 34 33 34 34 35 35 35 36 34 32 33 34 28 30 29 33 25 17 8 16 18 14 14 12 22 29 31
22 23 30 32 31 32 32 32 34 35 36 35 35 33 32 31 33 33 28 25 28 27 21 15 17 18 17 5 2 8 14 24
21 21 27 29 28 28 29 30 31 33 34 33 35 33 34 31 31 33 31 29 23 23 20 17 18 17 16 15 11 9 11 13
17 19 24 24 27 27 25 28 30 32 33 34 33 36 35 35 34 39 39 29 24 24 22 23 21 22 18 14 13 10 10 9
Wind_Direction
353 346 341 337 332 322 309 288 279 268 273 273 267 283 275 252 242 236 232 229 225 224 225 220 217 218 215 211 206 213 217 213
355 349 340 332 327 325 322 314 288 284 272 284 271 272 277 267 253 241 234 231 223 221 226 223 216 217 218 212 210 215 211 221
354 351 349 345 337 330 327 324 318 294 290 287 286 274 275 267 266 251 242 233 230 221 220 222 218 216 219 215 210 211 214 211
355 354 351 346 341 334 329 326 323 315 298 290 273 266 268 260 256 253 244 238 231 226 220 221 220 216 220 219 213 211 213 212
358 355 351 347 344 336 329 327 326 323 309 298 294 287 273 265 263 254 254 242 235 226 220 222 221 216 219 218 213 211 214 214
2 356 351 351 347 342 335 330 327 324 316 305 297 287 276 263 263 260 260 253 241 235 223 220 220 215 218 219 216 212 214 217
4 358 357 356 351 346 341 336 333 333 324 312 301 296 285 271 257 263 258 260 248 238 228 222 219 215 214 215 221 219 216 219
2 1 1 0 359 354 348 343 334 337 328 328 315 303 296 285 270 255 259 262 262 247 232 219 221 214 214 212 218 223 221 220
6 1 4 4 2 2 360 354 341 337 338 340 338 321 302 293 286 265 261 265 267 275 252 211 217 213 214 212 213 221 224 223
3 2 6 8 4 5 5 5 359 345 339 340 345 336 326 294 285 269 264 266 267 270 243 209 219 212 208 209 211 216 221 223
1 4 6 8 6 8 9 11 11 5 356 359 358 359 9 331 271 267 258 258 252 261 292 208 222 215 209 213 214 214 217 222
0 3 6 8 7 13 11 12 14 17 16 13 18 19 19 34 237 317 250 235 253 279 275 229 211 210 206 208 210 215 216 221
2 4 6 8 9 12 12 11 13 19 24 21 25 23 22 39 76 60 49 166 217 265 273 326 163 178 190 200 201 209 223 230
6 6 5 8 10 13 11 12 13 15 21 22 25 31 31 46 52 62 56 66 85 120 210 352 138 168 181 171 185 200 203 196
10 5 2 8 12 14 12 12 17 19 21 21 24 28 38 46 49 51 56 62 64 105 96 343 57 131 166 172 196 209 222 232
13 5 2 6 12 13 15 16 19 23 22 21 25 30 35 45 50 51 53 54 55 57 63 4 13 38 101 154 177 200 217 233
14 7 1 4 14 12 12 15 19 26 26 25 28 31 38 40 50 53 51 52 57 51 47 18 24 6 32 20 324 260 248 252
14 6 2 3 13 14 13 16 18 25 28 29 32 32 39 44 51 56 57 50 47 37 37 30 37 32 11 10 9 317 283 270
13 4 359 8 14 15 15 21 23 21 25 25 32 32 38 44 49 52 54 54 55 46 37 34 30 35 24 22 10 351 332 331